Kinston, NC

12:12 PM EST on February 19, 2017 (GMT -0500)
Kinston Regional Jetport / Stallings Field

Weather History for KISO - December, 2013

Change the Weather History Date:

Monday, December 2, 2013

  Actual Average Record
Temperature  
Mean Temperature 44 °F -  
Max Temperature 58 °F 58 °F 80 °F (1991)
Min Temperature 33 °F 38 °F 23 °F (1976)
Degree Days  
Heating Degree Days 21    
Moisture  
Dew Point 38 °F    
Average Humidity 91    
Maximum Humidity 100    
Minimum Humidity 51    
Precipitation  
Precipitation 0.00 in - - ()
Sea Level Pressure  
Sea Level Pressure 29.92 in    
Wind  
Wind Speed 0 mph (NE)    
Max Wind Speed 8 mph    
Max Gust Speed -    
Visibility 9 miles    
Events      
Averages and records for this station are not official NWS values.
T = Trace of Precipitation, MM = Missing Value Source: NWS Daily Summary

Daily Weather History Graph

Daily Weather History Graph

Search for Another Location

Airport or City:

Trip Planner

Search our weather history database for the weather conditions in past years. The results will help you decide how hot, cold, wet, or windy it might be!

Date:

Astronomy

Dec. 02, 2013 Rise Set
Actual Time 7:02 AM EST 4:57 PM EST
Civil Twilight 6:34 AM EST 5:25 PM EST
Nautical Twilight 6:02 AM EST 5:57 PM EST
Astronomical Twilight 5:31 AM EST 6:28 PM EST
Moon 6:26 AM EST (12/2) 4:57 PM EST (12/2)
Length of Visible Light 10h 51m
Length of Day
9h 55m
Waning Crescent, 0% of the Moon is Illuminated
Dec 2
Waning Crescent
Dec 2
New
Dec 9
First Quarter
Dec 17
Full
Dec 25
Last Quarter

Hourly Weather History & Observations

Time (EST) Temp. Windchill Dew Point Humidity Pressure Visibility Wind Dir Wind Speed Gust Speed Precip Events Conditions
12:15 AM 37.9 °F - 37.2 °F 97% 30.04 in - Calm Calm - N/A   Unknown
12:35 AM 36.1 °F - 35.4 °F 97% 30.02 in - Calm Calm - N/A   Unknown
12:55 AM 37.8 °F - 37.0 °F 97% 30.02 in - Calm Calm - N/A   Unknown
1:15 AM 38.5 °F - 37.8 °F 97% 30.01 in - Calm Calm - N/A   Unknown
1:35 AM 37.6 °F - 36.7 °F 97% 30.01 in - Calm Calm - N/A   Unknown
1:55 AM 38.3 °F - 37.8 °F 98% 30.00 in - Calm Calm - N/A   Unknown
2:15 AM 37.6 °F - 37.0 °F 98% 29.99 in - Calm Calm - N/A   Unknown
2:35 AM 37.2 °F - 36.7 °F 98% 29.98 in - Calm Calm - N/A   Unknown
2:55 AM 36.5 °F - 36.0 °F 98% 29.99 in - Calm Calm - N/A   Unknown
3:15 AM 35.8 °F - 35.2 °F 98% 29.98 in - Calm Calm - N/A   Unknown
3:35 AM 37.2 °F - 36.7 °F 98% 29.98 in - Calm Calm - N/A   Unknown
3:55 AM 37.8 °F - 37.4 °F 99% 29.97 in - Calm Calm - N/A   Unknown
4:15 AM 37.6 °F - 37.0 °F 98% 29.96 in - Calm Calm - N/A   Overcast
4:35 AM 38.3 °F - 37.8 °F 98% 29.96 in - Calm Calm - N/A   Overcast
4:55 AM 39.4 °F - 39.0 °F 99% 29.96 in - Calm Calm - N/A   Unknown
5:15 AM 40.5 °F - 39.9 °F 98% 29.96 in - Calm Calm - N/A   Unknown
5:35 AM 41.2 °F - 40.8 °F 99% 29.96 in - Calm Calm - N/A   Unknown
5:55 AM 42.1 °F - 41.5 °F 98% 29.96 in - Calm Calm - N/A   Overcast
6:56 AM 42.8 °F - 41.0 °F 93% 29.95 in 5.0 mi Calm Calm - N/A   Overcast
7:56 AM 44.6 °F - 42.8 °F 93% 29.95 in 5.0 mi Calm Calm - N/A   Overcast
8:56 AM 46.4 °F 45.2 °F 42.8 °F 87% 29.94 in 5.0 mi East 3.5 mph - N/A   Mostly Cloudy
9:56 AM 48.2 °F - 44.6 °F 87% 29.94 in - NE 3.5 mph - N/A   Mostly Cloudy
10:56 AM 50.0 °F - 44.6 °F 82% 29.93 in - NNE 3.5 mph - N/A   Mostly Cloudy
11:56 AM 53.6 °F - 42.8 °F 67% 29.88 in 10.0 mi NE 8.1 mph - N/A   Overcast
12:56 PM 55.4 °F - 39.2 °F 54% 29.86 in - NE 5.8 mph - N/A   Scattered Clouds
1:56 PM 55.4 °F - 37.4 °F 51% 29.85 in - Calm Calm - N/A   Mostly Cloudy
2:56 PM 55.4 °F - 37.4 °F 51% 29.84 in 10.0 mi North 3.5 mph - N/A   Mostly Cloudy
3:56 PM 55.4 °F - 37.4 °F 51% 29.85 in 10.0 mi NNW 3.5 mph - N/A   Mostly Cloudy
4:56 PM 51.8 °F - 41.0 °F 67% 29.84 in 10.0 mi Calm Calm - N/A   Clear
5:56 PM 42.8 °F - 39.2 °F 87% 29.85 in 10.0 mi Calm Calm - N/A   Overcast
6:56 PM 41.0 °F - 39.2 °F 93% 29.85 in 10.0 mi Calm Calm - N/A   Clear
7:56 PM 39.2 °F - 37.4 °F 93% 29.87 in 10.0 mi Calm Calm - N/A   Clear
8:15 PM 38.1 °F - 36.9 °F 95% 29.87 in - Calm Calm - N/A   Unknown
8:35 PM 37.8 °F - 36.7 °F 96% 29.87 in - Calm Calm - N/A   Unknown
8:55 PM 38.1 °F - 36.9 °F 95% 29.88 in - Calm Calm - N/A   Unknown
8:56 PM 37.4 °F - 37.4 °F 100% 29.88 in 10.0 mi Calm Calm - N/A   Clear
9:15 PM 37.9 °F - 36.9 °F 96% 29.88 in - Calm Calm - N/A   Unknown
9:35 PM 36.5 °F - 35.6 °F 97% 29.88 in - Calm Calm - N/A   Unknown
9:55 PM 36.7 °F - 35.6 °F 96% 29.88 in - Calm Calm - N/A   Unknown
9:56 PM 35.6 °F - 35.6 °F 100% 29.88 in 10.0 mi Calm Calm - N/A   Clear
10:15 PM 36.5 °F - 35.6 °F 97% 29.89 in - Calm Calm - N/A   Unknown
10:35 PM 34.9 °F - 34.0 °F 97% 29.88 in - Calm Calm - N/A   Unknown
10:55 PM 35.6 °F - 34.7 °F 97% 29.89 in - Calm Calm - N/A   Unknown
11:15 PM 33.3 °F - 32.4 °F 96% 29.89 in - Calm Calm - N/A   Unknown
11:35 PM 33.4 °F - 32.5 °F 96% 29.89 in - Calm Calm - N/A   Unknown
11:55 PM 34.0 °F - 33.3 °F 97% 29.89 in - Calm Calm - N/A   Unknown